Home   Weather   El Monte   Past weeks

Flag for USA Past Weather in El Monte, California, USA — Yesterday and Last 2 Weeks

Now
63 °F

Sunny.


Feels Like: 63 °F
Forecast: 46 / 73 °F
Wind: No wind

Location: Fullerton Municipal Airport

Current Time: Mar 1, 2017 at 9:53:59 am

Latest Report: Mar 1, 2017 at 8:53 am


Visibility: 10 mi

Pressure: 30.26 "Hg

Humidity: 40%

Dew Point: 38 °F

Location of El MonteLocation

Past Weather in El Monte — Graph

°F

El Monte Temperature Yesterday

Maximum temperature yesterday: 64 °F (at 12:53 pm)
Minimum temperature yesterday: 44 °F (at 4:53 am)
Average temperature yesterday: 54 °F

High & Low Weather Summary for the Past Weeks

 TemperatureHumidityPressure
High82 °F (Feb 15, 1:53 pm)100% (Feb 15, 4:53 am)30.33 "Hg (Feb 15, 4:53 am)
Low40 °F (Feb 24, 4:53 am)20% (Feb 15, 12:53 pm)29.45 "Hg (Feb 17, 4:53 pm)
Average56 °F75%29.99 "Hg
* Reported Feb 14 7:53 am — Mar 1 7:53 am, El Monte, Weather by CustomWeather, © 2017

Note: Actual official high and low records may vary slightly from our data, if they occured in-between our weather recording intervals... More about our weather records

Advertising

El Monte Weather History for the Previous 24 Hours

Scroll right to see more
 ConditionsComfort  
Time TempWeatherWind HumidityBarometerVisibility
7:53 am
Wed, Mar 1
56 °FSunny.No wind58%30.25 "Hg10 mi
6:53 am47 °FSunny.No wind80%30.23 "Hg10 mi
5:53 am43 °FClear.3 mph89%30.22 "Hg10 mi
4:53 am44 °FClear.No wind85%30.21 "Hg10 mi
3:53 am44 °FClear.No wind89%30.20 "Hg10 mi
2:53 am46 °FClear.No wind86%30.21 "Hg10 mi
1:53 am46 °FClear.No wind89%30.21 "Hg10 mi
12:53 am48 °FClear.No wind83%30.21 "Hg10 mi
11:53 pm
Tue, Feb 28
50 °FClear.3 mph80%30.21 "Hg10 mi
10:53 pm50 °FClear.6 mph83%30.21 "Hg10 mi
9:53 pm51 °FClear.No wind83%30.21 "Hg10 mi
8:53 pm53 °FClear.No wind77%30.20 "Hg10 mi
7:53 pm56 °FClear.No wind70%30.19 "Hg10 mi
6:53 pm56 °FClear.3 mph67%30.18 "Hg10 mi
5:53 pm58 °FClear.5 mph54%30.15 "Hg10 mi
4:53 pm61 °FSunny.6 mph44%30.13 "Hg10 mi
3:53 pm63 °FSunny.6 mph38%30.10 "Hg10 mi
2:53 pm63 °FSunny.9 mph40%30.09 "Hg10 mi
1:53 pm64 °FPassing clouds.10 mph41%30.08 "Hg10 mi
12:53 pm64 °FSunny.No wind37%30.09 "Hg10 mi
11:53 am63 °FSunny.9 mph40%30.10 "Hg10 mi
10:53 am61 °FSunny.5 mph50%30.10 "Hg10 mi
9:53 am59 °FPassing clouds.6 mph56%30.09 "Hg10 mi
Weather by CustomWeather, © 2017

See weather overviewHow to use our weather pages